Location: Observatory
(52.1446°N, 0.4624°W)
Time: 06:27:31
(UTC+00:00)

ISS - Pass Details

Date: 12 December 2017
Orbit: 403 x 407 km, 51.6° (Epoch: 12 December)

Event Time Altitude Azimuth Distance (km) Brightness Sun altitude
Rises 17:51:55 0° 282° (WNW) 2,333 1.2 -17.5°
Reaches altitude 10° 17:54:06 10° 274° (W) 1,469 0.1 -17.8°
Maximum altitude 17:57:09 35° 206° (SSW) 671 -2.4 -18.3°
Enters shadow 17:58:42 22° 154° (SSE) 947 -2.1 -18.5°
